Time,TemperatureF,DewpointF,PressureIn,WindDirection,WindDirectionDegrees,WindSpeedMPH,WindSpeedGustMPH,Humidity,HourlyPrecipIn,Conditions,Clouds,dailyrainin,SoftwareType,DateUTC
2013-09-04 00:00:00,56.7,50.9,29.94,SW,225,3.4,3.4,81,0.00,,CLR,0.00,VWS V14.01,2013-09-04 04:00:00,
2013-09-04 00:01:00,56.7,50.9,29.94,SW,225,3.4,3.4,81,0.00,,CLR,0.00,VWS V14.01,2013-09-04 04:01:00,
2013-09-04 00:02:00,56.7,50.9,29.94,SW,225,3.4,3.4,81,0.00,,CLR,0.00,VWS V14.01,2013-09-04 04:02:00,
2013-09-04 00:03:00,56.7,50.9,29.94,SW,225,3.4,3.4,81,0.00,,CLR,0.00,VWS V14.01,2013-09-04 04:03:00,
2013-09-04 00:07:00,56.5,51.1,29.94,SW,225,3.4,3.4,82,0.00,,CLR,0.00,VWS V14.01,2013-09-04 04:07:00,
2013-09-04 00:12:00,56.3,51.2,29.94,SW,225,3.4,3.4,83,0.00,,CLR,0.00,VWS V14.01,2013-09-04 04:12:00,
2013-09-04 00:17:00,56.5,52.0,29.94,SW,225,3.4,3.4,85,0.00,,CLR,0.00,VWS V14.01,2013-09-04 04:17:00,
2013-09-04 00:22:00,56.7,52.5,29.94,SW,225,3.4,3.4,86,0.00,,CLR,0.00,VWS V14.01,2013-09-04 04:22:00,
2013-09-04 00:27:00,56.5,52.3,29.94,SW,225,3.4,3.4,86,0.00,,CLR,0.00,VWS V14.01,2013-09-04 04:27:00,
2013-09-04 00:32:00,56.5,52.3,29.94,SW,225,3.4,3.4,86,0.00,,CLR,0.00,VWS V14.01,2013-09-04 04:32:00,
2013-09-04 00:37:00,56.1,51.7,29.94,SW,225,3.4,3.4,85,0.00,,CLR,0.00,VWS V14.01,2013-09-04 04:37:00,
2013-09-04 00:42:00,55.4,50.7,29.94,SW,225,3.4,3.4,84,0.00,,CLR,0.00,VWS V14.01,2013-09-04 04:42:00,
2013-09-04 00:47:00,55.4,50.7,29.94,SW,225,3.4,3.4,84,0.00,,CLR,0.00,VWS V14.01,2013-09-04 04:47:00,
2013-09-04 00:52:00,55.2,50.8,29.94,SW,225,3.4,3.4,85,0.00,,CLR,0.00,VWS V14.01,2013-09-04 04:52:00,
2013-09-04 00:57:00,55.2,51.4,29.94,SW,225,3.4,3.4,87,0.00,,CLR,0.00,VWS V14.01,2013-09-04 04:57:00,
2013-09-04 01:00:00,55.2,51.4,29.94,SW,225,3.4,3.4,87,0.00,,CLR,0.00,VWS V14.01,2013-09-04 05:00:00,
2013-09-04 01:02:00,55.2,51.4,29.94,SW,225,3.4,3.4,87,0.00,,CLR,0.00,VWS V14.01,2013-09-04 05:02:00,
2013-09-04 01:07:00,55.8,52.9,29.94,SW,225,3.4,3.4,90,0.00,,CLR,0.00,VWS V14.01,2013-09-04 05:07:00,
2013-09-04 01:12:00,55.8,52.9,29.94,SW,225,3.4,3.4,90,0.00,,CLR,0.00,VWS V14.01,2013-09-04 05:12:00,
2013-09-04 01:17:00,56.3,54.3,29.94,SW,225,3.4,3.4,93,0.00,,CLR,0.00,VWS V14.01,2013-09-04 05:17:00,
2013-09-04 01:22:00,56.3,54.3,29.94,SW,225,3.4,3.4,93,0.00,,CLR,0.00,VWS V14.01,2013-09-04 05:22:00,
2013-09-04 01:23:00,56.3,54.3,29.94,SW,225,3.4,3.4,93,0.00,,CLR,0.00,VWS V14.01,2013-09-04 05:23:00,
2013-09-04 01:28:00,56.3,54.0,29.94,SW,225,3.4,3.4,92,0.00,,CLR,0.00,VWS V14.01,2013-09-04 05:28:00,
2013-09-04 01:33:00,56.3,54.0,29.94,SW,225,3.4,3.4,92,0.00,,CLR,0.00,VWS V14.01,2013-09-04 05:33:00,
2013-09-04 01:38:00,56.3,54.0,29.94,SW,225,3.4,3.4,92,0.00,,CLR,0.00,VWS V14.01,2013-09-04 05:38:00,
2013-09-04 01:43:00,56.3,53.7,29.94,SW,225,3.4,3.4,91,0.00,,CLR,0.00,VWS V14.01,2013-09-04 05:43:00,
2013-09-04 01:49:00,56.3,53.7,29.94,SW,225,3.4,3.4,91,0.00,,CLR,0.00,VWS V14.01,2013-09-04 05:49:00,
2013-09-04 01:54:00,56.1,53.2,29.94,SW,225,3.4,3.4,90,0.00,,CLR,0.00,VWS V14.01,2013-09-04 05:54:00,
2013-09-04 01:59:00,56.1,53.5,29.94,SW,225,3.4,3.4,91,0.00,,CLR,0.00,VWS V14.01,2013-09-04 05:59:00,
2013-09-04 02:04:00,56.1,53.5,29.94,SW,225,3.4,3.4,91,0.00,,CLR,0.00,VWS V14.01,2013-09-04 06:04:00,
2013-09-04 02:09:00,56.1,53.5,29.94,SW,225,3.4,3.4,91,0.00,,CLR,0.00,VWS V14.01,2013-09-04 06:09:00,
2013-09-04 02:14:00,56.1,53.5,29.94,SW,225,3.4,3.4,91,0.00,,CLR,0.00,VWS V14.01,2013-09-04 06:14:00,
2013-09-04 02:19:00,56.1,53.8,29.97,SW,225,3.4,3.4,92,0.00,,CLR,0.00,VWS V14.01,2013-09-04 06:19:00,
2013-09-04 02:24:00,55.9,53.7,29.97,SW,225,3.4,3.4,92,0.00,,CLR,0.00,VWS V14.01,2013-09-04 06:24:00,
2013-09-04 02:29:00,55.9,53.7,29.97,SW,225,3.4,3.4,92,0.00,,CLR,0.00,VWS V14.01,2013-09-04 06:29:00,
2013-09-04 02:34:00,55.8,53.5,29.94,SW,225,3.4,3.4,92,0.00,,CLR,0.00,VWS V14.01,2013-09-04 06:34:00,
2013-09-04 02:39:00,55.8,53.8,29.94,SW,225,3.4,3.4,93,0.00,,CLR,0.00,VWS V14.01,2013-09-04 06:39:00,
2013-09-04 02:44:00,55.6,53.6,29.94,SW,225,3.4,3.4,93,0.00,,CLR,0.00,VWS V14.01,2013-09-04 06:44:00,
2013-09-04 02:49:00,55.4,53.4,29.94,SW,225,3.4,3.4,93,0.00,,CLR,0.00,VWS V14.01,2013-09-04 06:49:00,
2013-09-04 02:54:00,55.4,53.4,29.94,SW,225,3.4,3.4,93,0.00,,CLR,0.00,VWS V14.01,2013-09-04 06:54:00,
2013-09-04 02:59:00,55.2,53.5,29.94,SW,225,3.4,3.4,94,0.00,,CLR,0.00,VWS V14.01,2013-09-04 06:59:00,
2013-09-04 03:00:00,55.2,53.5,29.94,SW,225,3.4,3.4,94,0.00,,CLR,0.00,VWS V14.01,2013-09-04 07:00:00,
2013-09-04 03:04:00,55.0,53.3,29.94,SW,225,3.4,3.4,94,0.00,,CLR,0.00,VWS V14.01,2013-09-04 07:04:00,
2013-09-04 03:09:00,55.0,53.3,29.94,SW,225,3.4,3.4,94,0.00,,CLR,0.00,VWS V14.01,2013-09-04 07:09:00,
2013-09-04 03:14:00,54.9,53.5,29.94,SW,225,3.4,3.4,95,0.00,,CLR,0.00,VWS V14.01,2013-09-04 07:14:00,
2013-09-04 03:19:00,54.9,53.5,29.94,SW,225,3.4,3.4,95,0.00,,CLR,0.00,VWS V14.01,2013-09-04 07:19:00,
2013-09-04 03:24:00,55.0,53.6,29.94,SW,225,3.4,3.4,95,0.00,,CLR,0.00,VWS V14.01,2013-09-04 07:24:00,
2013-09-04 03:29:00,55.0,53.9,29.94,SW,225,3.4,3.4,96,0.00,,CLR,0.00,VWS V14.01,2013-09-04 07:29:00,
2013-09-04 03:34:00,55.2,54.4,29.94,SW,225,3.4,3.4,97,0.00,,CLR,0.00,VWS V14.01,2013-09-04 07:34:00,
2013-09-04 03:39:00,55.2,54.7,29.94,SW,225,3.4,3.4,98,0.00,,CLR,0.00,VWS V14.01,2013-09-04 07:39:00,
2013-09-04 03:44:00,55.2,54.7,29.94,SW,225,3.4,3.4,98,0.00,,CLR,0.00,VWS V14.01,2013-09-04 07:44:00,
2013-09-04 03:49:00,55.4,54.8,29.94,SW,225,3.4,3.4,98,0.00,,CLR,0.00,VWS V14.01,2013-09-04 07:49:00,
2013-09-04 03:54:00,55.4,54.8,29.97,SW,225,3.4,3.4,98,0.00,,CLR,0.00,VWS V14.01,2013-09-04 07:54:00,
2013-09-04 03:59:00,55.4,54.8,29.97,SW,225,3.4,3.4,98,0.00,,CLR,0.00,VWS V14.01,2013-09-04 07:59:00,
2013-09-04 04:00:00,55.4,54.8,29.97,SW,225,3.4,3.4,98,0.00,,CLR,0.00,VWS V14.01,2013-09-04 08:00:00,
2013-09-04 04:04:00,55.4,54.8,29.97,SW,225,3.4,3.4,98,0.00,,CLR,0.00,VWS V14.01,2013-09-04 08:04:00,
2013-09-04 04:09:00,55.6,55.0,29.97,SW,225,3.4,3.4,98,0.00,,CLR,0.00,VWS V14.01,2013-09-04 08:09:00,
2013-09-04 04:14:00,55.6,55.0,29.97,SW,225,3.4,3.4,98,0.00,,CLR,0.00,VWS V14.01,2013-09-04 08:14:00,
2013-09-04 04:19:00,55.6,55.0,29.97,SW,225,3.4,3.4,98,0.00,,CLR,0.00,VWS V14.01,2013-09-04 08:19:00,
2013-09-04 04:24:00,55.6,55.0,29.97,SW,225,3.4,3.4,98,0.00,,CLR,0.00,VWS V14.01,2013-09-04 08:24:00,
2013-09-04 04:29:00,55.8,55.2,29.97,SW,225,3.4,3.4,98,0.00,,CLR,0.00,VWS V14.01,2013-09-04 08:29:00,
2013-09-04 04:34:00,55.8,55.2,29.97,SW,225,3.4,3.4,98,0.00,,CLR,0.00,VWS V14.01,2013-09-04 08:34:00,
2013-09-04 04:39:00,55.9,55.4,29.97,SW,225,3.4,3.4,98,0.00,,CLR,0.00,VWS V14.01,2013-09-04 08:39:00,
2013-09-04 04:44:00,55.9,55.4,29.97,SW,225,3.4,3.4,98,0.00,,CLR,0.00,VWS V14.01,2013-09-04 08:44:00,
2013-09-04 04:49:00,56.1,55.6,29.97,SW,225,3.4,3.4,98,0.00,,CLR,0.00,VWS V14.01,2013-09-04 08:49:00,
2013-09-04 04:54:00,55.9,55.4,29.97,SW,225,3.4,3.4,98,0.00,,CLR,0.00,VWS V14.01,2013-09-04 08:54:00,
2013-09-04 04:59:00,55.9,55.4,29.97,SW,225,3.4,3.4,98,0.00,,CLR,0.00,VWS V14.01,2013-09-04 08:59:00,
2013-09-04 05:04:00,55.9,55.4,29.97,SW,225,3.4,3.4,98,0.00,,CLR,0.00,VWS V14.01,2013-09-04 09:04:00,
2013-09-04 05:09:00,56.3,55.8,29.97,SW,225,3.4,3.4,98,0.00,,CLR,0.00,VWS V14.01,2013-09-04 09:09:00,
2013-09-04 05:14:00,56.3,55.8,29.97,SW,225,3.4,3.4,98,0.00,,CLR,0.00,VWS V14.01,2013-09-04 09:14:00,
2013-09-04 05:19:00,56.3,55.8,29.97,SW,225,3.4,3.4,98,0.00,,CLR,0.00,VWS V14.01,2013-09-04 09:19:00,
2013-09-04 05:24:00,56.3,55.8,29.97,SW,225,3.4,3.4,98,0.00,,CLR,0.00,VWS V14.01,2013-09-04 09:24:00,
2013-09-04 05:29:00,56.3,55.8,29.97,SW,225,3.4,3.4,98,0.00,,CLR,0.00,VWS V14.01,2013-09-04 09:29:00,
2013-09-04 05:34:00,55.9,55.4,29.97,SW,225,3.4,3.4,98,0.00,,CLR,0.00,VWS V14.01,2013-09-04 09:34:00,
2013-09-04 05:39:00,55.9,55.4,29.97,SW,225,3.4,3.4,98,0.00,,CLR,0.00,VWS V14.01,2013-09-04 09:39:00,
2013-09-04 05:44:00,55.9,55.4,29.97,SW,225,3.4,3.4,98,0.00,,CLR,0.00,VWS V14.01,2013-09-04 09:44:00,
2013-09-04 05:49:00,55.9,55.4,29.97,SW,225,3.4,3.4,98,0.00,,CLR,0.00,VWS V14.01,2013-09-04 09:49:00,
2013-09-04 05:54:00,55.9,55.4,29.97,SW,225,3.4,3.4,98,0.00,,CLR,0.00,VWS V14.01,2013-09-04 09:54:00,
2013-09-04 05:59:00,55.9,55.4,29.97,SW,225,3.4,3.4,98,0.00,,CLR,0.00,VWS V14.01,2013-09-04 09:59:00,
2013-09-04 06:00:00,55.9,55.4,29.97,SW,225,3.4,3.4,98,0.00,,CLR,0.00,VWS V14.01,2013-09-04 10:00:00,
2013-09-04 06:04:00,56.1,55.6,29.97,SW,225,3.4,3.4,98,0.00,,CLR,0.00,VWS V14.01,2013-09-04 10:04:00,
2013-09-04 06:10:00,56.3,55.8,29.97,SW,225,3.4,3.4,98,0.00,,CLR,0.00,VWS V14.01,2013-09-04 10:10:00,
2013-09-04 06:15:00,56.3,55.8,29.97,SW,225,3.4,3.4,98,0.00,,CLR,0.00,VWS V14.01,2013-09-04 10:15:00,
2013-09-04 06:20:00,56.5,55.9,29.97,SW,225,3.4,3.4,98,0.00,,CLR,0.00,VWS V14.01,2013-09-04 10:20:00,
2013-09-04 06:25:00,56.5,55.9,29.97,SW,225,3.4,3.4,98,0.00,,CLR,0.00,VWS V14.01,2013-09-04 10:25:00,
2013-09-04 06:30:00,56.5,55.9,29.97,SW,225,3.4,3.4,98,0.00,,CLR,0.00,VWS V14.01,2013-09-04 10:30:00,
2013-09-04 06:35:00,56.5,55.9,29.97,SW,225,3.4,3.4,98,0.00,,CLR,0.00,VWS V14.01,2013-09-04 10:35:00,
2013-09-04 06:40:00,56.5,55.9,29.97,SW,225,3.4,3.4,98,0.00,,CLR,0.00,VWS V14.01,2013-09-04 10:40:00,
2013-09-04 06:45:00,56.5,55.9,29.97,SW,225,3.4,3.4,98,0.00,,CLR,0.00,VWS V14.01,2013-09-04 10:45:00,
2013-09-04 06:50:00,56.5,55.9,29.97,SW,225,3.4,3.4,98,0.00,,CLR,0.00,VWS V14.01,2013-09-04 10:50:00,
2013-09-04 06:55:00,56.5,55.9,29.97,SW,225,3.4,3.4,98,0.00,,CLR,0.00,VWS V14.01,2013-09-04 10:55:00,
2013-09-04 07:00:00,56.7,56.1,29.97,SW,225,3.4,3.4,98,0.00,,CLR,0.00,VWS V14.01,2013-09-04 11:00:00,
2013-09-04 07:05:00,56.8,56.3,29.97,SW,225,3.4,3.4,98,0.00,,CLR,0.00,VWS V14.01,2013-09-04 11:05:00,
2013-09-04 07:10:00,57.2,56.6,29.97,SW,225,3.4,3.4,98,0.00,,CLR,0.00,VWS V14.01,2013-09-04 11:10:00,
2013-09-04 07:15:00,57.7,57.2,29.97,SW,225,3.4,3.4,98,0.00,,CLR,0.00,VWS V14.01,2013-09-04 11:15:00,
2013-09-04 07:20:00,57.9,57.4,29.97,SW,225,3.4,3.4,98,0.00,,CLR,0.00,VWS V14.01,2013-09-04 11:20:00,
2013-09-04 07:25:00,58.3,57.7,29.94,SW,225,3.4,3.4,98,0.00,,CLR,0.00,VWS V14.01,2013-09-04 11:25:00,
2013-09-04 07:30:00,58.6,58.1,29.94,SW,225,3.4,3.4,98,0.00,,CLR,0.00,VWS V14.01,2013-09-04 11:30:00,
2013-09-04 07:35:00,59.5,59.0,29.97,SW,225,3.4,3.4,98,0.00,,CLR,0.00,VWS V14.01,2013-09-04 11:35:00,
2013-09-04 07:40:00,59.7,59.2,29.97,SW,225,3.4,3.4,98,0.00,,CLR,0.00,VWS V14.01,2013-09-04 11:40:00,
2013-09-04 07:45:00,60.4,59.9,29.97,SW,225,3.4,3.4,98,0.00,,CLR,0.00,VWS V14.01,2013-09-04 11:45:00,
2013-09-04 07:50:00,61.0,59.0,29.97,SW,225,3.4,3.4,93,0.00,,CLR,0.00,VWS V14.01,2013-09-04 11:50:00,
2013-09-04 07:55:00,61.5,58.2,29.97,SW,225,3.4,3.4,89,0.00,,CLR,0.00,VWS V14.01,2013-09-04 11:55:00,
2013-09-04 08:00:00,62.2,58.0,29.97,SW,225,3.4,3.4,86,0.00,,CLR,0.00,VWS V14.01,2013-09-04 12:00:00,
2013-09-04 08:05:00,62.8,57.9,29.97,SW,225,3.4,3.4,84,0.00,,CLR,0.00,VWS V14.01,2013-09-04 12:05:00,
2013-09-04 08:10:00,63.3,58.1,29.97,SW,225,3.4,3.4,83,0.00,,CLR,0.00,VWS V14.01,2013-09-04 12:10:00,
2013-09-04 08:15:00,64.2,58.6,29.97,SW,225,3.4,3.4,82,0.00,,CLR,0.00,VWS V14.01,2013-09-04 12:15:00,
2013-09-04 08:20:00,64.4,58.1,29.97,SW,225,3.4,3.4,80,0.00,,CLR,0.00,VWS V14.01,2013-09-04 12:20:00,
2013-09-04 08:25:00,65.3,57.5,29.97,SW,225,3.4,3.4,76,0.00,,CLR,0.00,VWS V14.01,2013-09-04 12:25:00,
2013-09-04 08:30:00,65.5,57.4,29.97,SW,225,3.4,3.4,75,0.00,,CLR,0.00,VWS V14.01,2013-09-04 12:30:00,
2013-09-04 08:35:00,65.5,57.4,29.97,SW,225,3.4,3.4,75,0.00,,CLR,0.00,VWS V14.01,2013-09-04 12:35:00,
2013-09-04 08:40:00,65.7,57.9,29.97,SW,225,3.4,3.4,76,0.00,,CLR,0.00,VWS V14.01,2013-09-04 12:40:00,
2013-09-04 08:45:00,66.6,58.0,29.97,SW,225,3.4,3.4,74,0.00,,CLR,0.00,VWS V14.01,2013-09-04 12:45:00,
2013-09-04 08:50:00,67.1,57.4,29.97,SW,225,3.4,3.4,71,0.00,,CLR,0.00,VWS V14.01,2013-09-04 12:50:00,
2013-09-04 08:55:00,67.1,57.8,29.97,SW,225,3.4,3.4,72,0.00,,CLR,0.00,VWS V14.01,2013-09-04 12:55:00,
2013-09-04 09:00:00,67.8,58.1,29.97,SW,225,3.4,3.4,71,0.00,,CLR,0.00,VWS V14.01,2013-09-04 13:00:00,
2013-09-04 09:05:00,68.5,58.4,29.97,SW,225,3.4,3.4,70,0.00,,CLR,0.00,VWS V14.01,2013-09-04 13:05:00,
2013-09-04 09:10:00,69.3,58.3,29.97,SW,225,3.4,3.4,68,0.00,,CLR,0.00,VWS V14.01,2013-09-04 13:10:00,
2013-09-04 09:15:00,69.6,57.3,29.97,SW,225,3.4,3.4,65,0.00,,CLR,0.00,VWS V14.01,2013-09-04 13:15:00,
2013-09-04 09:20:00,70.0,57.7,29.97,SW,225,3.4,3.4,65,0.00,,CLR,0.00,VWS V14.01,2013-09-04 13:20:00,
2013-09-04 09:25:00,70.3,56.7,29.97,SW,225,3.4,3.4,62,0.00,,CLR,0.00,VWS V14.01,2013-09-04 13:25:00,
2013-09-04 09:30:00,70.5,57.8,29.97,SW,225,3.4,3.4,64,0.00,,CLR,0.00,VWS V14.01,2013-09-04 13:30:00,
2013-09-04 09:35:00,71.1,57.4,29.94,SW,225,3.4,3.4,62,0.00,,CLR,0.00,VWS V14.01,2013-09-04 13:35:00,
2013-09-04 09:40:00,71.1,57.4,29.94,SW,225,3.4,3.4,62,0.00,,CLR,0.00,VWS V14.01,2013-09-04 13:40:00,
2013-09-04 09:45:00,72.0,57.8,29.94,SW,225,3.4,3.4,61,0.00,,CLR,0.00,VWS V14.01,2013-09-04 13:45:00,
2013-09-04 09:50:00,72.5,58.3,29.97,SW,225,3.4,3.4,61,0.00,,CLR,0.00,VWS V14.01,2013-09-04 13:50:00,
2013-09-04 09:55:00,73.0,57.9,29.97,SW,225,3.4,3.4,59,0.00,,CLR,0.00,VWS V14.01,2013-09-04 13:55:00,
2013-09-04 10:00:00,73.2,57.6,29.97,SW,225,3.4,3.4,58,0.00,,CLR,0.00,VWS V14.01,2013-09-04 14:00:00,
2013-09-04 10:05:00,74.1,57.9,29.94,SW,225,3.4,3.4,57,0.00,,CLR,0.00,VWS V14.01,2013-09-04 14:05:00,
2013-09-04 10:10:00,74.7,57.4,29.94,SW,225,3.4,3.4,55,0.00,,CLR,0.00,VWS V14.01,2013-09-04 14:10:00,
2013-09-04 10:15:00,75.0,56.8,29.94,SW,225,3.4,3.4,53,0.00,,CLR,0.00,VWS V14.01,2013-09-04 14:15:00,
2013-09-04 10:20:00,75.4,57.1,29.97,SW,225,3.4,3.4,53,0.00,,CLR,0.00,VWS V14.01,2013-09-04 14:20:00,
2013-09-04 10:25:00,76.1,58.3,29.97,SW,225,3.4,3.4,54,0.00,,CLR,0.00,VWS V14.01,2013-09-04 14:25:00,
2013-09-04 10:31:00,76.3,57.4,29.97,SW,225,3.4,3.4,52,0.00,,CLR,0.00,VWS V14.01,2013-09-04 14:31:00,
2013-09-04 10:36:00,76.5,57.0,29.97,SW,225,3.4,3.4,51,0.00,,CLR,0.00,VWS V14.01,2013-09-04 14:36:00,
2013-09-04 10:41:00,76.6,56.6,29.97,SW,225,3.4,3.4,50,0.00,,CLR,0.00,VWS V14.01,2013-09-04 14:41:00,
2013-09-04 10:46:00,77.4,56.7,29.97,SW,225,3.4,3.4,49,0.00,,CLR,0.00,VWS V14.01,2013-09-04 14:46:00,
2013-09-04 10:51:00,77.5,55.7,29.94,SW,225,3.4,3.4,47,0.00,,CLR,0.00,VWS V14.01,2013-09-04 14:51:00,
2013-09-04 10:56:00,77.7,54.7,29.94,SW,225,3.4,3.4,45,0.00,,CLR,0.00,VWS V14.01,2013-09-04 14:56:00,
2013-09-04 11:00:00,77.9,54.9,29.94,SW,225,3.4,3.4,45,0.00,,CLR,0.00,VWS V14.01,2013-09-04 15:00:00,
2013-09-04 11:01:00,77.9,54.9,29.94,SW,225,3.4,3.4,45,0.00,,CLR,0.00,VWS V14.01,2013-09-04 15:01:00,
2013-09-04 11:06:00,78.1,54.4,29.94,SW,225,3.4,3.4,44,0.00,,CLR,0.00,VWS V14.01,2013-09-04 15:06:00,
2013-09-04 11:11:00,78.6,54.9,29.94,SW,225,3.4,3.4,44,0.00,,CLR,0.00,VWS V14.01,2013-09-04 15:11:00,
2013-09-04 11:16:00,78.8,53.1,29.94,SW,225,3.4,3.4,41,0.00,,CLR,0.00,VWS V14.01,2013-09-04 15:16:00,
2013-09-04 11:21:00,78.8,53.1,29.94,SW,225,3.4,3.4,41,0.00,,CLR,0.00,VWS V14.01,2013-09-04 15:21:00,
2013-09-04 11:26:00,78.4,53.5,29.94,SW,225,3.4,3.4,42,0.00,,CLR,0.00,VWS V14.01,2013-09-04 15:26:00,
2013-09-04 11:31:00,79.0,54.0,29.94,SW,225,3.4,3.4,42,0.00,,CLR,0.00,VWS V14.01,2013-09-04 15:31:00,
2013-09-04 11:36:00,79.2,54.1,29.97,SW,225,3.4,3.4,42,0.00,,CLR,0.00,VWS V14.01,2013-09-04 15:36:00,
2013-09-04 11:41:00,78.6,54.3,29.97,SW,225,3.4,3.4,43,0.00,,CLR,0.00,VWS V14.01,2013-09-04 15:41:00,
2013-09-04 11:46:00,78.6,54.3,29.97,SW,225,3.4,3.4,43,0.00,,CLR,0.00,VWS V14.01,2013-09-04 15:46:00,
2013-09-04 11:51:00,79.0,54.0,29.94,SW,225,3.4,3.4,42,0.00,,CLR,0.00,VWS V14.01,2013-09-04 15:51:00,
2013-09-04 11:56:00,79.2,54.1,29.94,SW,225,3.4,3.4,42,0.00,,CLR,0.00,VWS V14.01,2013-09-04 15:56:00,
2013-09-04 12:00:00,79.7,54.6,29.94,SW,225,3.4,3.4,42,0.00,,CLR,0.00,VWS V14.01,2013-09-04 16:00:00,
2013-09-04 12:01:00,79.7,54.6,29.94,SW,225,3.4,3.4,42,0.00,,CLR,0.00,VWS V14.01,2013-09-04 16:01:00,
2013-09-04 12:06:00,80.6,56.1,29.97,SW,225,3.4,3.4,43,0.00,,CLR,0.00,VWS V14.01,2013-09-04 16:06:00,
2013-09-04 12:11:00,80.6,56.1,29.97,SW,225,3.4,3.4,43,0.00,,CLR,0.00,VWS V14.01,2013-09-04 16:11:00,
2013-09-04 12:16:00,80.6,56.1,29.97,SW,225,3.4,3.4,43,0.00,,CLR,0.00,VWS V14.01,2013-09-04 16:16:00,
2013-09-04 12:21:00,82.0,54.7,29.97,SW,225,3.4,3.4,39,0.00,,CLR,0.00,VWS V14.01,2013-09-04 16:21:00,
2013-09-04 12:26:00,82.0,54.7,29.97,SW,225,3.4,3.4,39,0.00,,CLR,0.00,VWS V14.01,2013-09-04 16:26:00,
2013-09-04 12:31:00,82.0,54.7,29.97,SW,225,3.4,3.4,39,0.00,,CLR,0.00,VWS V14.01,2013-09-04 16:31:00,
2013-09-04 12:36:00,82.0,54.7,29.94,SW,225,3.4,3.4,39,0.00,,CLR,0.00,VWS V14.01,2013-09-04 16:36:00,
2013-09-04 12:41:00,82.0,54.7,29.94,SW,225,3.4,3.4,39,0.00,,CLR,0.00,VWS V14.01,2013-09-04 16:41:00,
2013-09-04 12:46:00,82.0,54.7,29.94,SW,225,3.4,3.4,39,0.00,,CLR,0.00,VWS V14.01,2013-09-04 16:46:00,
2013-09-04 12:51:00,82.0,54.7,29.94,SW,225,3.4,3.4,39,0.00,,CLR,0.00,VWS V14.01,2013-09-04 16:51:00,
2013-09-04 12:56:00,82.0,54.7,29.94,SW,225,3.4,3.4,39,0.00,,CLR,0.00,VWS V14.01,2013-09-04 16:56:00,
2013-09-04 13:00:00,82.0,54.7,29.94,SW,225,3.4,3.4,39,0.00,,CLR,0.00,VWS V14.01,2013-09-04 17:00:00,
2013-09-04 13:01:00,82.0,54.7,29.94,SW,225,3.4,3.4,39,0.00,,CLR,0.00,VWS V14.01,2013-09-04 17:01:00,
2013-09-04 13:06:00,81.5,51.2,29.94,SW,225,3.4,3.4,35,0.00,,CLR,0.00,VWS V14.01,2013-09-04 17:06:00,
2013-09-04 13:11:00,81.5,51.2,29.94,SW,225,3.4,3.4,35,0.00,,CLR,0.00,VWS V14.01,2013-09-04 17:11:00,
2013-09-04 13:16:00,81.5,51.2,29.94,SW,225,3.4,3.4,35,0.00,,CLR,0.00,VWS V14.01,2013-09-04 17:16:00,
2013-09-04 13:21:00,81.5,51.2,29.91,SW,225,3.4,3.4,35,0.00,,CLR,0.00,VWS V14.01,2013-09-04 17:21:00,
2013-09-04 13:26:00,81.5,51.2,29.91,SW,225,3.4,3.4,35,0.00,,CLR,0.00,VWS V14.01,2013-09-04 17:26:00,
2013-09-04 13:31:00,81.5,51.2,29.91,SW,225,3.4,3.4,35,0.00,,CLR,0.00,VWS V14.01,2013-09-04 17:31:00,
2013-09-04 13:36:00,81.5,51.2,29.91,SW,225,3.4,3.4,35,0.00,,CLR,0.00,VWS V14.01,2013-09-04 17:36:00,
2013-09-04 13:41:00,81.5,51.2,29.91,SW,225,3.4,3.4,35,0.00,,CLR,0.00,VWS V14.01,2013-09-04 17:41:00,
2013-09-04 13:46:00,81.5,51.2,29.91,SW,225,3.4,3.4,35,0.00,,CLR,0.00,VWS V14.01,2013-09-04 17:46:00,
2013-09-04 13:51:00,81.5,51.2,29.94,SW,225,3.4,3.4,35,0.00,,CLR,0.00,VWS V14.01,2013-09-04 17:51:00,
2013-09-04 13:56:00,81.5,51.2,29.94,SW,225,3.4,3.4,35,0.00,,CLR,0.00,VWS V14.01,2013-09-04 17:56:00,
2013-09-04 14:00:00,81.5,51.2,29.94,SW,225,3.4,3.4,35,0.00,,CLR,0.00,VWS V14.01,2013-09-04 18:00:00,
2013-09-04 14:01:00,81.5,51.2,29.94,SW,225,3.4,3.4,35,0.00,,CLR,0.00,VWS V14.01,2013-09-04 18:01:00,
2013-09-04 14:06:00,81.5,51.2,29.91,SW,225,3.4,3.4,35,0.00,,CLR,0.00,VWS V14.01,2013-09-04 18:06:00,
2013-09-04 14:11:00,81.5,51.2,29.91,SW,225,3.4,3.4,35,0.00,,CLR,0.00,VWS V14.01,2013-09-04 18:11:00,
2013-09-04 14:16:00,81.5,51.2,29.91,SW,225,3.4,3.4,35,0.00,,CLR,0.00,VWS V14.01,2013-09-04 18:16:00,
2013-09-04 14:22:00,81.5,51.2,29.91,SW,225,3.4,3.4,35,0.00,,CLR,0.00,VWS V14.01,2013-09-04 18:22:00,
2013-09-04 14:27:00,81.5,51.2,29.91,SW,225,3.4,3.4,35,0.00,,CLR,0.00,VWS V14.01,2013-09-04 18:27:00,
2013-09-04 14:32:00,84.0,52.7,29.91,SW,225,3.4,3.4,34,0.00,,CLR,0.00,VWS V14.01,2013-09-04 18:32:00,
2013-09-04 14:37:00,84.0,52.7,29.91,SW,225,3.4,3.4,34,0.00,,CLR,0.00,VWS V14.01,2013-09-04 18:37:00,
2013-09-04 14:42:00,84.0,52.7,29.91,SW,225,3.4,3.4,34,0.00,,CLR,0.00,VWS V14.01,2013-09-04 18:42:00,
2013-09-04 14:47:00,84.0,52.7,29.91,SW,225,3.4,3.4,34,0.00,,CLR,0.00,VWS V14.01,2013-09-04 18:47:00,
2013-09-04 14:52:00,84.0,52.7,29.91,SW,225,3.4,3.4,34,0.00,,CLR,0.00,VWS V14.01,2013-09-04 18:52:00,
2013-09-04 14:57:00,84.0,52.7,29.91,SW,225,3.4,3.4,34,0.00,,CLR,0.00,VWS V14.01,2013-09-04 18:57:00,
2013-09-04 15:00:00,84.0,52.7,29.91,SW,225,3.4,3.4,34,0.00,,CLR,0.00,VWS V14.01,2013-09-04 19:00:00,
2013-09-04 15:02:00,84.0,52.7,29.91,SW,225,3.4,3.4,34,0.00,,CLR,0.00,VWS V14.01,2013-09-04 19:02:00,
2013-09-04 15:07:00,84.0,52.7,29.94,SW,225,3.4,3.4,34,0.00,,CLR,0.00,VWS V14.01,2013-09-04 19:07:00,
2013-09-04 15:12:00,84.0,52.7,29.94,SW,225,3.4,3.4,34,0.00,,CLR,0.00,VWS V14.01,2013-09-04 19:12:00,
2013-09-04 15:17:00,84.0,52.7,29.94,SW,225,3.4,3.4,34,0.00,,CLR,0.00,VWS V14.01,2013-09-04 19:17:00,
2013-09-04 15:22:00,84.0,52.7,29.91,SW,225,3.4,3.4,34,0.00,,CLR,0.00,VWS V14.01,2013-09-04 19:22:00,
2013-09-04 15:27:00,84.0,52.7,29.91,SW,225,3.4,3.4,34,0.00,,CLR,0.00,VWS V14.01,2013-09-04 19:27:00,
2013-09-04 15:32:00,84.0,52.7,29.91,SW,225,3.4,3.4,34,0.00,,CLR,0.00,VWS V14.01,2013-09-04 19:32:00,
2013-09-04 15:37:00,84.0,52.7,29.88,SW,225,3.4,3.4,34,0.00,,CLR,0.00,VWS V14.01,2013-09-04 19:37:00,
2013-09-04 15:42:00,84.0,52.7,29.88,SW,225,3.4,3.4,34,0.00,,CLR,0.00,VWS V14.01,2013-09-04 19:42:00,
2013-09-04 15:47:00,84.0,52.7,29.88,SW,225,3.4,3.4,34,0.00,,CLR,0.00,VWS V14.01,2013-09-04 19:47:00,
2013-09-04 15:52:00,84.0,52.7,29.91,SW,225,3.4,3.4,34,0.00,,CLR,0.00,VWS V14.01,2013-09-04 19:52:00,
2013-09-04 15:57:00,84.0,52.7,29.91,SW,225,3.4,3.4,34,0.00,,CLR,0.00,VWS V14.01,2013-09-04 19:57:00,
2013-09-04 16:00:00,84.0,52.7,29.91,SW,225,3.4,3.4,34,0.00,,CLR,0.00,VWS V14.01,2013-09-04 20:00:00,
2013-09-04 16:02:00,84.0,52.7,29.91,SW,225,3.4,3.4,34,0.00,,CLR,0.00,VWS V14.01,2013-09-04 20:02:00,
2013-09-04 16:07:00,84.0,52.7,29.88,SW,225,3.4,3.4,34,0.00,,CLR,0.00,VWS V14.01,2013-09-04 20:07:00,
2013-09-04 16:12:00,84.0,52.7,29.88,SW,225,3.4,3.4,34,0.00,,CLR,0.00,VWS V14.01,2013-09-04 20:12:00,
2013-09-04 16:17:00,84.0,52.7,29.88,SW,225,3.4,3.4,34,0.00,,CLR,0.00,VWS V14.01,2013-09-04 20:17:00,
2013-09-04 16:22:00,84.0,52.7,29.88,SW,225,3.4,3.4,34,0.00,,CLR,0.00,VWS V14.01,2013-09-04 20:22:00,
2013-09-04 16:27:00,86.7,57.4,29.88,SW,225,3.4,3.4,37,0.00,,CLR,0.00,VWS V14.01,2013-09-04 20:27:00,
2013-09-04 16:32:00,86.7,57.4,29.88,SW,225,3.4,3.4,37,0.00,,CLR,0.00,VWS V14.01,2013-09-04 20:32:00,
2013-09-04 16:37:00,86.7,57.4,29.88,SW,225,3.4,3.4,37,0.00,,CLR,0.00,VWS V14.01,2013-09-04 20:37:00,
2013-09-04 16:42:00,86.7,57.4,29.88,SW,225,3.4,3.4,37,0.00,,CLR,0.00,VWS V14.01,2013-09-04 20:42:00,
2013-09-04 16:47:00,86.7,57.4,29.88,SW,225,3.4,3.4,37,0.00,,CLR,0.00,VWS V14.01,2013-09-04 20:47:00,
2013-09-04 16:52:00,86.7,57.4,29.88,SW,225,3.4,3.4,37,0.00,,CLR,0.00,VWS V14.01,2013-09-04 20:52:00,
2013-09-04 16:57:00,86.7,57.4,29.88,SW,225,3.4,3.4,37,0.00,,CLR,0.00,VWS V14.01,2013-09-04 20:57:00,
2013-09-04 17:00:00,86.7,57.4,29.88,SW,225,3.4,3.4,37,0.00,,CLR,0.00,VWS V14.01,2013-09-04 21:00:00,
2013-09-04 17:02:00,86.7,57.4,29.88,SW,225,3.4,3.4,37,0.00,,CLR,0.00,VWS V14.01,2013-09-04 21:02:00,
2013-09-04 17:07:00,86.7,57.4,29.88,SW,225,3.4,3.4,37,0.00,,CLR,0.00,VWS V14.01,2013-09-04 21:07:00,
2013-09-04 17:12:00,86.7,57.4,29.88,SW,225,3.4,3.4,37,0.00,,CLR,0.00,VWS V14.01,2013-09-04 21:12:00,
2013-09-04 17:17:00,86.7,57.4,29.88,SW,225,3.4,3.4,37,0.00,,CLR,0.00,VWS V14.01,2013-09-04 21:17:00,
2013-09-04 17:20:00,84.9,56.5,29.88,SW,225,3.4,3.4,38,0.00,,CLR,0.00,VWS V14.01,2013-09-04 21:20:00,
2013-09-04 17:22:00,84.9,56.5,29.88,SW,225,3.4,3.4,38,0.00,,CLR,0.00,VWS V14.01,2013-09-04 21:22:00,
2013-09-04 17:25:00,84.9,56.5,29.88,SW,225,3.4,3.4,38,0.00,,CLR,0.00,VWS V14.01,2013-09-04 21:25:00,
2013-09-04 17:28:00,84.9,56.5,29.88,SW,225,3.4,3.4,38,0.00,,CLR,0.00,VWS V14.01,2013-09-04 21:28:00,
2013-09-04 17:33:00,84.9,56.5,29.88,SW,225,3.4,3.4,38,0.00,,CLR,0.00,VWS V14.01,2013-09-04 21:33:00,
2013-09-04 17:38:00,84.9,56.5,29.88,SW,225,3.4,3.4,38,0.00,,CLR,0.00,VWS V14.01,2013-09-04 21:38:00,
2013-09-04 17:43:00,84.9,56.5,29.88,SW,225,3.4,3.4,38,0.00,,CLR,0.00,VWS V14.01,2013-09-04 21:43:00,
2013-09-04 17:48:00,84.9,56.5,29.85,SW,225,3.4,3.4,38,0.00,,CLR,0.00,VWS V14.01,2013-09-04 21:48:00,
2013-09-04 17:53:00,84.9,56.5,29.85,SW,225,3.4,3.4,38,0.00,,CLR,0.00,VWS V14.01,2013-09-04 21:53:00,
2013-09-04 17:58:00,84.9,56.5,29.85,SW,225,3.4,3.4,38,0.00,,CLR,0.00,VWS V14.01,2013-09-04 21:58:00,
2013-09-04 18:00:00,84.9,56.5,29.85,SW,225,3.4,3.4,38,0.00,,CLR,0.00,VWS V14.01,2013-09-04 22:00:00,
2013-09-04 18:03:00,84.9,56.5,29.85,SW,225,3.4,3.4,38,0.00,,CLR,0.00,VWS V14.01,2013-09-04 22:03:00,
2013-09-04 18:08:00,84.9,56.5,29.85,SW,225,3.4,3.4,38,0.00,,CLR,0.00,VWS V14.01,2013-09-04 22:08:00,
2013-09-04 18:13:00,84.9,56.5,29.85,SW,225,3.4,3.4,38,0.00,,CLR,0.00,VWS V14.01,2013-09-04 22:13:00,
2013-09-04 18:18:00,84.9,56.5,29.85,SW,225,3.4,3.4,38,0.00,,CLR,0.00,VWS V14.01,2013-09-04 22:18:00,
2013-09-04 18:23:00,84.9,56.5,29.85,SW,225,3.4,3.4,38,0.00,,CLR,0.00,VWS V14.01,2013-09-04 22:23:00,
2013-09-04 18:28:00,84.9,56.5,29.85,SW,225,3.4,3.4,38,0.00,,CLR,0.00,VWS V14.01,2013-09-04 22:28:00,
2013-09-04 18:33:00,84.9,56.5,29.85,SW,225,3.4,3.4,38,0.00,,CLR,0.00,VWS V14.01,2013-09-04 22:33:00,
2013-09-04 18:38:00,84.9,56.5,29.85,SW,225,3.4,3.4,38,0.00,,CLR,0.00,VWS V14.01,2013-09-04 22:38:00,
2013-09-04 18:43:00,84.9,56.5,29.85,SW,225,3.4,3.4,38,0.00,,CLR,0.00,VWS V14.01,2013-09-04 22:43:00,
2013-09-04 18:49:00,84.9,56.5,29.85,SW,225,3.4,3.4,38,0.00,,CLR,0.00,VWS V14.01,2013-09-04 22:49:00,
2013-09-04 18:54:00,84.9,56.5,29.85,SW,225,3.4,3.4,38,0.00,,CLR,0.00,VWS V14.01,2013-09-04 22:54:00,
2013-09-04 18:59:00,84.9,56.5,29.85,SW,225,3.4,3.4,38,0.00,,CLR,0.00,VWS V14.01,2013-09-04 22:59:00,
2013-09-04 19:00:00,84.9,56.5,29.85,SW,225,3.4,3.4,38,0.00,,CLR,0.00,VWS V14.01,2013-09-04 23:00:00,
2013-09-04 19:04:00,84.9,56.5,29.85,SW,225,3.4,3.4,38,0.00,,CLR,0.00,VWS V14.01,2013-09-04 23:04:00,
2013-09-04 19:09:00,84.9,56.5,29.85,SW,225,3.4,3.4,38,0.00,,CLR,0.00,VWS V14.01,2013-09-04 23:09:00,
2013-09-04 19:14:00,84.9,56.5,29.85,SW,225,3.4,3.4,38,0.00,,CLR,0.00,VWS V14.01,2013-09-04 23:14:00,
2013-09-04 19:19:00,84.9,56.5,29.88,SW,225,3.4,3.4,38,0.00,,CLR,0.00,VWS V14.01,2013-09-04 23:19:00,
2013-09-04 19:24:00,84.9,56.5,29.88,SW,225,3.4,3.4,38,0.00,,CLR,0.00,VWS V14.01,2013-09-04 23:24:00,
2013-09-04 19:29:00,84.9,56.5,29.88,SW,225,3.4,3.4,38,0.00,,CLR,0.00,VWS V14.01,2013-09-04 23:29:00,
2013-09-04 19:34:00,84.9,56.5,29.88,SW,225,3.4,3.4,38,0.00,,CLR,0.00,VWS V14.01,2013-09-04 23:34:00,
2013-09-04 19:39:00,74.3,60.9,29.88,SW,225,3.4,3.4,63,0.00,,CLR,0.00,VWS V14.01,2013-09-04 23:39:00,
2013-09-04 19:44:00,74.3,60.9,29.88,SW,225,3.4,3.4,63,0.00,,CLR,0.00,VWS V14.01,2013-09-04 23:44:00,
2013-09-04 19:49:00,74.3,60.9,29.88,SW,225,3.4,3.4,63,0.00,,CLR,0.00,VWS V14.01,2013-09-04 23:49:00,
2013-09-04 19:54:00,74.3,60.9,29.88,SW,225,3.4,3.4,63,0.00,,CLR,0.00,VWS V14.01,2013-09-04 23:54:00,
2013-09-04 19:59:00,74.3,60.9,29.88,SW,225,3.4,3.4,63,0.00,,CLR,0.00,VWS V14.01,2013-09-04 23:59:00,
2013-09-04 20:00:00,74.3,60.9,29.88,SW,225,3.4,3.4,63,0.00,,CLR,0.00,VWS V14.01,2013-09-05 00:00:00,
2013-09-04 20:04:00,74.3,60.9,29.88,SW,225,3.4,3.4,63,0.00,,CLR,0.00,VWS V14.01,2013-09-05 00:04:00,
2013-09-04 20:09:00,74.3,60.9,29.88,SW,225,3.4,3.4,63,0.00,,CLR,0.00,VWS V14.01,2013-09-05 00:09:00,
2013-09-04 20:14:00,74.3,60.9,29.88,SW,225,3.4,3.4,63,0.00,,CLR,0.00,VWS V14.01,2013-09-05 00:14:00,
2013-09-04 20:19:00,74.3,60.9,29.91,SW,225,3.4,3.4,63,0.00,,CLR,0.00,VWS V14.01,2013-09-05 00:19:00,
2013-09-04 20:24:00,74.3,60.9,29.91,SW,225,3.4,3.4,63,0.00,,CLR,0.00,VWS V14.01,2013-09-05 00:24:00,
2013-09-04 20:29:00,74.3,60.9,29.91,SW,225,3.4,3.4,63,0.00,,CLR,0.00,VWS V14.01,2013-09-05 00:29:00,
2013-09-04 20:34:00,74.3,60.9,29.91,SW,225,3.4,3.4,63,0.00,,CLR,0.00,VWS V14.01,2013-09-05 00:34:00,
2013-09-04 20:39:00,74.3,60.9,29.91,SW,225,3.4,3.4,63,0.00,,CLR,0.00,VWS V14.01,2013-09-05 00:39:00,
2013-09-04 20:44:00,74.3,60.9,29.91,SW,225,3.4,3.4,63,0.00,,CLR,0.00,VWS V14.01,2013-09-05 00:44:00,
2013-09-04 20:50:00,74.3,60.9,29.91,SW,225,3.4,3.4,63,0.00,,CLR,0.00,VWS V14.01,2013-09-05 00:50:00,
2013-09-04 20:55:00,74.3,60.9,29.91,SW,225,3.4,3.4,63,0.00,,CLR,0.00,VWS V14.01,2013-09-05 00:55:00,
2013-09-04 21:00:00,74.3,60.9,29.91,SW,225,3.4,3.4,63,0.00,,CLR,0.00,VWS V14.01,2013-09-05 01:00:00,
2013-09-04 21:05:00,74.3,60.9,29.91,SW,225,3.4,3.4,63,0.00,,CLR,0.00,VWS V14.01,2013-09-05 01:05:00,
2013-09-04 21:10:00,74.3,60.9,29.91,SW,225,3.4,3.4,63,0.00,,CLR,0.00,VWS V14.01,2013-09-05 01:10:00,
2013-09-04 21:15:00,74.3,60.9,29.91,SW,225,3.4,3.4,63,0.00,,CLR,0.00,VWS V14.01,2013-09-05 01:15:00,
2013-09-04 21:20:00,74.3,60.9,29.91,SW,225,3.4,3.4,63,0.00,,CLR,0.00,VWS V14.01,2013-09-05 01:20:00,
2013-09-04 21:25:00,74.3,60.9,29.91,SW,225,3.4,3.4,63,0.00,,CLR,0.00,VWS V14.01,2013-09-05 01:25:00,
2013-09-04 21:30:00,74.3,60.9,29.91,SW,225,3.4,3.4,63,0.00,,CLR,0.00,VWS V14.01,2013-09-05 01:30:00,
2013-09-04 21:35:00,74.3,60.9,29.91,SW,225,3.4,3.4,63,0.00,,CLR,0.00,VWS V14.01,2013-09-05 01:35:00,
2013-09-04 21:40:00,74.3,60.9,29.91,SW,225,3.4,3.4,63,0.00,,CLR,0.00,VWS V14.01,2013-09-05 01:40:00,
2013-09-04 21:45:00,74.3,60.9,29.91,SW,225,3.4,3.4,63,0.00,,CLR,0.00,VWS V14.01,2013-09-05 01:45:00,
2013-09-04 21:50:00,74.3,60.9,29.91,SW,225,3.4,3.4,63,0.00,,CLR,0.00,VWS V14.01,2013-09-05 01:50:00,
2013-09-04 21:55:00,74.3,60.9,29.91,SW,225,3.4,3.4,63,0.00,,CLR,0.00,VWS V14.01,2013-09-05 01:55:00,
2013-09-04 22:00:00,74.3,60.9,29.91,SW,225,3.4,3.4,63,0.00,,CLR,0.00,VWS V14.01,2013-09-05 02:00:00,
2013-09-04 22:05:00,74.3,60.9,29.94,SW,225,3.4,3.4,63,0.00,,CLR,0.00,VWS V14.01,2013-09-05 02:05:00,
2013-09-04 22:10:00,74.3,60.9,29.94,SW,225,3.4,3.4,63,0.00,,CLR,0.00,VWS V14.01,2013-09-05 02:10:00,
2013-09-04 22:15:00,74.3,60.9,29.94,SW,225,3.4,3.4,63,0.00,,CLR,0.00,VWS V14.01,2013-09-05 02:15:00,
2013-09-04 22:20:00,74.3,60.9,29.94,SW,225,3.4,3.4,63,0.00,,CLR,0.00,VWS V14.01,2013-09-05 02:20:00,
2013-09-04 22:25:00,74.3,60.9,29.94,SW,225,3.4,3.4,63,0.00,,CLR,0.00,VWS V14.01,2013-09-05 02:25:00,
2013-09-04 22:30:00,74.3,60.9,29.94,SW,225,3.4,3.4,63,0.00,,CLR,0.00,VWS V14.01,2013-09-05 02:30:00,
2013-09-04 22:35:00,74.3,60.9,29.94,SW,225,3.4,3.4,63,0.00,,CLR,0.00,VWS V14.01,2013-09-05 02:35:00,
2013-09-04 22:40:00,74.3,60.9,29.94,SW,225,3.4,3.4,63,0.00,,CLR,0.00,VWS V14.01,2013-09-05 02:40:00,
2013-09-04 22:45:00,74.3,60.9,29.94,SW,225,3.4,3.4,63,0.00,,CLR,0.00,VWS V14.01,2013-09-05 02:45:00,
2013-09-04 22:50:00,74.3,60.9,29.94,SW,225,3.4,3.4,63,0.00,,CLR,0.00,VWS V14.01,2013-09-05 02:50:00,
2013-09-04 22:55:00,74.3,60.9,29.94,SW,225,3.4,3.4,63,0.00,,CLR,0.00,VWS V14.01,2013-09-05 02:55:00,
2013-09-04 23:00:00,74.3,60.9,29.94,SW,225,3.4,3.4,63,0.00,,CLR,0.00,VWS V14.01,2013-09-05 03:00:00,
2013-09-04 23:01:00,74.3,60.9,29.94,SW,225,3.4,3.4,63,0.00,,CLR,0.00,VWS V14.01,2013-09-05 03:01:00,
2013-09-04 23:06:00,74.3,60.9,29.97,SW,225,3.4,3.4,63,0.00,,CLR,0.00,VWS V14.01,2013-09-05 03:06:00,
2013-09-04 23:11:00,74.3,60.9,29.97,SW,225,3.4,3.4,63,0.00,,CLR,0.00,VWS V14.01,2013-09-05 03:11:00,
2013-09-04 23:16:00,74.3,60.9,29.97,SW,225,3.4,3.4,63,0.00,,CLR,0.00,VWS V14.01,2013-09-05 03:16:00,
2013-09-04 23:21:00,74.3,60.9,29.97,SW,225,3.4,3.4,63,0.00,,CLR,0.00,VWS V14.01,2013-09-05 03:21:00,
2013-09-04 23:26:00,74.3,60.9,29.97,SW,225,3.4,3.4,63,0.00,,CLR,0.00,VWS V14.01,2013-09-05 03:26:00,
2013-09-04 23:31:00,74.3,60.9,29.97,SW,225,3.4,3.4,63,0.00,,CLR,0.00,VWS V14.01,2013-09-05 03:31:00,
2013-09-04 23:36:00,74.3,60.9,29.97,SW,225,3.4,3.4,63,0.00,,CLR,0.00,VWS V14.01,2013-09-05 03:36:00,
2013-09-04 23:41:00,74.3,60.9,29.97,SW,225,3.4,3.4,63,0.00,,CLR,0.00,VWS V14.01,2013-09-05 03:41:00,
2013-09-04 23:46:00,74.3,60.9,29.97,SW,225,3.4,3.4,63,0.00,,CLR,0.00,VWS V14.01,2013-09-05 03:46:00,
2013-09-04 23:51:00,74.3,60.9,29.97,SW,225,3.4,3.4,63,0.00,,CLR,0.00,VWS V14.01,2013-09-05 03:51:00,
2013-09-04 23:56:00,74.3,60.9,29.97,SW,225,3.4,3.4,63,0.00,,CLR,0.00,VWS V14.01,2013-09-05 03:56:00,